Year,Month,Day,Hour,Minute,Value (Times are PST for temperature in C)
2021,06,25,00,00,18.40
2021,06,25,00,01,18.40
2021,06,25,00,02,18.40
2021,06,25,00,03,18.40
2021,06,25,00,04,18.40
2021,06,25,00,05,18.40
2021,06,25,00,06,18.40
2021,06,25,00,07,18.40
2021,06,25,00,08,18.50
2021,06,25,00,09,18.50
2021,06,25,00,10,18.50
2021,06,25,00,11,18.50
2021,06,25,00,12,18.50
2021,06,25,00,13,18.50
2021,06,25,00,14,18.60
2021,06,25,00,15,18.60
2021,06,25,00,16,18.60
2021,06,25,00,17,18.60
2021,06,25,00,18,18.60
2021,06,25,00,19,18.60
2021,06,25,00,20,18.60
2021,06,25,00,21,18.60
2021,06,25,00,22,18.70
2021,06,25,00,23,18.70
2021,06,25,00,24,18.70
2021,06,25,00,25,18.70
2021,06,25,00,26,18.70
2021,06,25,00,27,18.80
2021,06,25,00,28,18.80
2021,06,25,00,29,18.80
2021,06,25,00,30,18.80
2021,06,25,00,31,18.80
2021,06,25,00,32,18.80
2021,06,25,00,33,18.80
2021,06,25,00,34,18.90
2021,06,25,00,35,18.90
2021,06,25,00,36,18.90
2021,06,25,00,37,18.90
2021,06,25,00,38,18.90
2021,06,25,00,39,18.80
2021,06,25,00,40,18.80
2021,06,25,00,41,18.80
2021,06,25,00,42,18.80
2021,06,25,00,43,18.80
2021,06,25,00,44,18.80
2021,06,25,00,45,18.80
2021,06,25,00,46,18.80
2021,06,25,00,47,18.80
2021,06,25,00,48,18.70
2021,06,25,00,49,18.70
2021,06,25,00,50,18.70
2021,06,25,00,51,18.70
2021,06,25,00,52,18.70
2021,06,25,00,53,18.70
2021,06,25,00,54,18.70
2021,06,25,00,55,18.60
2021,06,25,00,56,18.60
2021,06,25,00,57,18.60
2021,06,25,00,58,18.60
2021,06,25,00,59,18.60
2021,06,25,01,00,18.50
2021,06,25,01,01,18.50
2021,06,25,01,02,18.40
2021,06,25,01,03,18.40
2021,06,25,01,04,18.40
2021,06,25,01,05,18.40
2021,06,25,01,06,18.50
2021,06,25,01,07,18.50
2021,06,25,01,08,18.50
2021,06,25,01,09,18.60
2021,06,25,01,10,18.60
2021,06,25,01,11,18.70
2021,06,25,01,12,18.80
2021,06,25,01,13,18.90
2021,06,25,01,14,19.00
2021,06,25,01,15,19.10
2021,06,25,01,16,19.30
2021,06,25,01,17,19.50
2021,06,25,01,18,19.80
2021,06,25,01,19,19.90
2021,06,25,01,20,20.20
2021,06,25,01,21,20.40
2021,06,25,01,22,20.50
2021,06,25,01,23,20.70
2021,06,25,01,24,20.80
2021,06,25,01,25,20.90
2021,06,25,01,26,21.00
2021,06,25,01,27,21.00
2021,06,25,01,28,21.10
2021,06,25,01,29,21.10
2021,06,25,01,30,21.20
2021,06,25,01,31,21.30
2021,06,25,01,32,21.30
2021,06,25,01,33,21.30
2021,06,25,01,34,21.30
2021,06,25,01,35,21.40
2021,06,25,01,36,21.40
2021,06,25,01,37,21.40
2021,06,25,01,38,21.40
2021,06,25,01,39,21.40
2021,06,25,01,40,21.40
2021,06,25,01,41,21.50
2021,06,25,01,42,21.60
2021,06,25,01,43,21.60
2021,06,25,01,44,21.60
2021,06,25,01,45,21.60
2021,06,25,01,46,21.60
2021,06,25,01,47,21.50
2021,06,25,01,48,21.60
2021,06,25,01,49,21.50
2021,06,25,01,50,21.50
2021,06,25,01,51,21.50
2021,06,25,01,52,21.50
2021,06,25,01,53,21.50
2021,06,25,01,54,21.40
2021,06,25,01,55,21.40
2021,06,25,01,56,21.40
2021,06,25,01,57,21.30
2021,06,25,01,58,21.30
2021,06,25,01,59,21.30
2021,06,25,02,00,21.40
2021,06,25,02,01,21.40
2021,06,25,02,02,21.40
2021,06,25,02,03,21.50
2021,06,25,02,04,21.50
2021,06,25,02,05,21.50
2021,06,25,02,06,21.60
2021,06,25,02,07,21.60
2021,06,25,02,08,21.60
2021,06,25,02,09,21.60
2021,06,25,02,10,21.60
2021,06,25,02,11,21.70
2021,06,25,02,12,21.70
2021,06,25,02,13,21.70
2021,06,25,02,14,21.70
2021,06,25,02,15,21.70
2021,06,25,02,16,21.70
2021,06,25,02,17,21.60
2021,06,25,02,18,21.60
2021,06,25,02,19,21.60
2021,06,25,02,20,21.60
2021,06,25,02,21,21.60
2021,06,25,02,22,21.60
2021,06,25,02,23,21.50
2021,06,25,02,24,21.50
2021,06,25,02,25,21.50
2021,06,25,02,26,21.50
2021,06,25,02,27,21.50
2021,06,25,02,28,21.50
2021,06,25,02,29,21.50
2021,06,25,02,30,21.50
2021,06,25,02,31,21.50
2021,06,25,02,32,21.50
2021,06,25,02,33,21.50
2021,06,25,02,34,21.50
2021,06,25,02,35,21.50
2021,06,25,02,36,21.40
2021,06,25,02,37,21.40
2021,06,25,02,38,21.40
2021,06,25,02,39,21.30
2021,06,25,02,40,21.30
2021,06,25,02,41,21.30
2021,06,25,02,42,21.20
2021,06,25,02,43,21.20
2021,06,25,02,44,21.10
2021,06,25,02,45,21.10
2021,06,25,02,46,21.10
2021,06,25,02,47,21.10
2021,06,25,02,48,21.00
2021,06,25,02,49,21.00
2021,06,25,02,50,21.00
2021,06,25,02,51,21.10
2021,06,25,02,52,21.10
2021,06,25,02,53,21.10
2021,06,25,02,54,21.10
2021,06,25,02,55,21.10
2021,06,25,02,56,21.10
2021,06,25,02,57,21.10
2021,06,25,02,58,21.10
2021,06,25,02,59,21.20
2021,06,25,03,00,21.20
2021,06,25,03,01,21.20
2021,06,25,03,02,21.20
2021,06,25,03,03,21.20
2021,06,25,03,04,21.20
2021,06,25,03,05,21.20
2021,06,25,03,06,21.20
2021,06,25,03,07,21.20
2021,06,25,03,08,21.20
2021,06,25,03,09,21.20
2021,06,25,03,10,21.20
2021,06,25,03,11,21.20
2021,06,25,03,12,21.20
2021,06,25,03,13,21.20
2021,06,25,03,14,21.10
2021,06,25,03,15,21.10
2021,06,25,03,16,21.10
2021,06,25,03,17,21.10
2021,06,25,03,18,21.00
2021,06,25,03,19,21.00
2021,06,25,03,20,21.00
2021,06,25,03,21,20.90
2021,06,25,03,22,20.90
2021,06,25,03,23,20.90
2021,06,25,03,24,20.90
2021,06,25,03,25,20.90
2021,06,25,03,26,20.80
2021,06,25,03,27,20.80
2021,06,25,03,28,20.80
2021,06,25,03,29,20.80
2021,06,25,03,30,20.80
2021,06,25,03,31,20.80
2021,06,25,03,32,20.90
2021,06,25,03,33,20.90
2021,06,25,03,34,20.90
2021,06,25,03,35,20.90
2021,06,25,03,36,20.90
2021,06,25,03,37,20.90
2021,06,25,03,38,20.90
2021,06,25,03,39,20.90
2021,06,25,03,40,20.90
2021,06,25,03,41,20.90
2021,06,25,03,42,20.90
2021,06,25,03,43,20.80
2021,06,25,03,44,20.90
2021,06,25,03,45,20.90
2021,06,25,03,46,20.90
2021,06,25,03,47,20.90
2021,06,25,03,48,21.00
2021,06,25,03,49,21.00
2021,06,25,03,50,21.00
2021,06,25,03,51,21.00
2021,06,25,03,52,20.90
2021,06,25,03,53,20.90
2021,06,25,03,54,20.90
2021,06,25,03,55,20.90
2021,06,25,03,56,20.90
2021,06,25,03,57,20.80
2021,06,25,03,58,20.80
2021,06,25,03,59,20.80
2021,06,25,04,00,20.80
2021,06,25,04,01,20.80
2021,06,25,04,02,20.80
2021,06,25,04,03,20.80
2021,06,25,04,04,20.80
2021,06,25,04,05,20.80
2021,06,25,04,06,20.80
2021,06,25,04,07,20.80
2021,06,25,04,08,20.80
2021,06,25,04,09,20.80
2021,06,25,04,10,20.90
2021,06,25,04,11,20.90
2021,06,25,04,12,20.90
2021,06,25,04,13,20.90
2021,06,25,04,14,20.90
2021,06,25,04,15,21.00
2021,06,25,04,16,21.00
2021,06,25,04,17,21.00
2021,06,25,04,18,21.00
2021,06,25,04,19,21.00
2021,06,25,04,20,21.00
2021,06,25,04,21,21.00
2021,06,25,04,22,20.90
2021,06,25,04,23,20.90
2021,06,25,04,24,20.90
2021,06,25,04,25,20.90
2021,06,25,04,26,20.90
2021,06,25,04,27,20.90
2021,06,25,04,28,20.90
2021,06,25,04,29,20.90
2021,06,25,04,30,20.90
2021,06,25,04,31,20.90
2021,06,25,04,32,20.90
2021,06,25,04,33,20.90
2021,06,25,04,34,20.90
2021,06,25,04,35,20.90
2021,06,25,04,36,20.90
2021,06,25,04,37,20.90
2021,06,25,04,38,20.90
2021,06,25,04,39,20.90
2021,06,25,04,40,20.90
2021,06,25,04,41,20.90
2021,06,25,04,42,21.00
2021,06,25,04,43,21.00
2021,06,25,04,44,21.10
2021,06,25,04,45,21.10
2021,06,25,04,46,21.10
2021,06,25,04,47,21.10
2021,06,25,04,48,21.20
2021,06,25,04,49,21.20
2021,06,25,04,50,21.20
2021,06,25,04,51,21.30
2021,06,25,04,52,21.30
2021,06,25,04,53,21.30
2021,06,25,04,54,21.30
2021,06,25,04,55,21.30
2021,06,25,04,56,21.30
2021,06,25,04,57,21.30
2021,06,25,04,58,21.30
2021,06,25,04,59,21.20
2021,06,25,05,00,21.20
2021,06,25,05,01,21.20
2021,06,25,05,02,21.20
2021,06,25,05,03,21.10
2021,06,25,05,04,21.10
2021,06,25,05,05,21.10
2021,06,25,05,06,21.10
2021,06,25,05,07,21.10
2021,06,25,05,08,21.10
2021,06,25,05,09,21.10
2021,06,25,05,10,21.10
2021,06,25,05,11,21.10
2021,06,25,05,12,21.10
2021,06,25,05,13,21.10
2021,06,25,05,14,21.10
2021,06,25,05,15,21.10
2021,06,25,05,16,21.10
2021,06,25,05,17,21.10
2021,06,25,05,18,21.00
2021,06,25,05,19,21.00
2021,06,25,05,20,21.00
2021,06,25,05,21,21.00
2021,06,25,05,22,21.00
2021,06,25,05,23,21.00
2021,06,25,05,24,20.90
2021,06,25,05,25,20.90
2021,06,25,05,26,20.90
2021,06,25,05,27,20.90
2021,06,25,05,28,20.90
2021,06,25,05,29,20.90
2021,06,25,05,30,20.90
2021,06,25,05,31,20.90
2021,06,25,05,32,20.90
2021,06,25,05,33,20.90
2021,06,25,05,34,20.90
2021,06,25,05,35,20.90
2021,06,25,05,36,20.90
2021,06,25,05,37,20.90
2021,06,25,05,38,20.80
2021,06,25,05,39,20.80
2021,06,25,05,40,20.80
2021,06,25,05,41,20.80
2021,06,25,05,42,20.80
2021,06,25,05,43,20.80
2021,06,25,05,44,20.80
2021,06,25,05,45,20.70
2021,06,25,05,46,20.70
2021,06,25,05,47,20.80
2021,06,25,05,48,20.80
2021,06,25,05,49,20.80
2021,06,25,05,50,20.90
2021,06,25,05,51,20.80
2021,06,25,05,52,20.90
2021,06,25,05,53,20.90
2021,06,25,05,54,20.90
2021,06,25,05,55,20.90
2021,06,25,05,56,20.90
2021,06,25,05,57,20.80
2021,06,25,05,58,20.80
2021,06,25,05,59,20.90
2021,06,25,06,00,20.90
2021,06,25,06,01,20.90
2021,06,25,06,02,20.90
2021,06,25,06,03,20.90
2021,06,25,06,04,20.90
2021,06,25,06,05,20.90
2021,06,25,06,06,20.90
2021,06,25,06,07,20.80
2021,06,25,06,08,20.80
2021,06,25,06,09,20.90
2021,06,25,06,10,20.90
2021,06,25,06,11,20.90
2021,06,25,06,12,20.90
2021,06,25,06,13,20.90
2021,06,25,06,14,20.90
2021,06,25,06,15,20.90
2021,06,25,06,16,20.90
2021,06,25,06,17,21.00
2021,06,25,06,18,21.00
2021,06,25,06,19,21.00
2021,06,25,06,20,21.00
2021,06,25,06,21,21.10
2021,06,25,06,22,21.10
2021,06,25,06,23,21.10
2021,06,25,06,24,21.10
2021,06,25,06,25,21.10
2021,06,25,06,26,21.10
2021,06,25,06,27,21.10
2021,06,25,06,28,21.10
2021,06,25,06,29,21.00
2021,06,25,06,30,21.00
2021,06,25,06,31,21.00
2021,06,25,06,32,21.00
2021,06,25,06,33,21.00
2021,06,25,06,34,20.90
2021,06,25,06,35,20.90
2021,06,25,06,36,20.90
2021,06,25,06,37,20.90
2021,06,25,06,38,20.90
2021,06,25,06,39,21.00
2021,06,25,06,40,21.00
2021,06,25,06,41,21.00
2021,06,25,06,42,20.90
2021,06,25,06,43,20.90
2021,06,25,06,44,20.90
2021,06,25,06,45,20.90
2021,06,25,06,46,20.90
2021,06,25,06,47,20.80
2021,06,25,06,48,20.80
2021,06,25,06,49,20.80
2021,06,25,06,50,20.80
2021,06,25,06,51,20.80
2021,06,25,06,52,20.80
2021,06,25,06,53,20.80
2021,06,25,06,54,20.80
2021,06,25,06,55,20.90
2021,06,25,06,56,20.90
2021,06,25,06,57,20.90
2021,06,25,06,58,20.90
2021,06,25,06,59,20.90
2021,06,25,07,00,20.90
2021,06,25,07,01,20.90
2021,06,25,07,02,21.00
2021,06,25,07,03,21.00
2021,06,25,07,04,21.00
2021,06,25,07,05,21.00
2021,06,25,07,06,21.00
2021,06,25,07,07,21.00
2021,06,25,07,08,21.00
2021,06,25,07,09,20.90
2021,06,25,07,10,21.00
2021,06,25,07,11,21.00
2021,06,25,07,12,21.00
2021,06,25,07,13,21.00
2021,06,25,07,14,21.00
2021,06,25,07,15,21.00
2021,06,25,07,16,20.90
2021,06,25,07,17,20.90
2021,06,25,07,18,20.90
2021,06,25,07,19,20.90
2021,06,25,07,20,20.90
2021,06,25,07,21,20.90
2021,06,25,07,22,20.90
2021,06,25,07,23,20.90
2021,06,25,07,24,20.90
2021,06,25,07,25,20.80
2021,06,25,07,26,20.80
2021,06,25,07,27,20.80
2021,06,25,07,28,20.80
2021,06,25,07,29,20.80
2021,06,25,07,30,20.80
2021,06,25,07,31,20.80
2021,06,25,07,32,20.80
2021,06,25,07,33,20.80
2021,06,25,07,34,20.80
2021,06,25,07,35,20.80
2021,06,25,07,36,20.80
2021,06,25,07,37,20.80
2021,06,25,07,38,20.80
2021,06,25,07,39,20.80
2021,06,25,07,40,20.80
2021,06,25,07,41,20.80
2021,06,25,07,42,20.80
2021,06,25,07,43,20.80
2021,06,25,07,44,20.80
2021,06,25,07,45,20.80
2021,06,25,07,46,20.80
2021,06,25,07,47,20.80
2021,06,25,07,48,20.80
2021,06,25,07,49,20.80
2021,06,25,07,50,20.80
2021,06,25,07,51,20.90
2021,06,25,07,52,20.80
2021,06,25,07,53,20.80
2021,06,25,07,54,20.90
2021,06,25,07,55,20.90
2021,06,25,07,56,20.90
2021,06,25,07,57,20.90
2021,06,25,07,58,20.90
2021,06,25,07,59,20.90
2021,06,25,08,00,20.90
2021,06,25,08,01,20.90
2021,06,25,08,02,20.90
2021,06,25,08,03,20.90
2021,06,25,08,04,20.90
2021,06,25,08,05,20.90
2021,06,25,08,06,21.00
2021,06,25,08,07,21.00
2021,06,25,08,08,21.00
2021,06,25,08,09,21.00
2021,06,25,08,10,21.00
2021,06,25,08,11,21.00
2021,06,25,08,12,21.10
2021,06,25,08,13,21.10
2021,06,25,08,14,21.10
2021,06,25,08,15,21.10
2021,06,25,08,16,21.20
2021,06,25,08,17,21.20
2021,06,25,08,18,21.20
2021,06,25,08,19,21.20
2021,06,25,08,20,21.20
2021,06,25,08,21,21.30
2021,06,25,08,22,21.30
2021,06,25,08,23,21.30
2021,06,25,08,24,21.30
2021,06,25,08,25,21.40
2021,06,25,08,26,21.40
2021,06,25,08,27,21.40
2021,06,25,08,28,21.40
2021,06,25,08,29,21.40
2021,06,25,08,30,21.40
2021,06,25,08,31,21.50
2021,06,25,08,32,21.50
2021,06,25,08,33,21.50
2021,06,25,08,34,21.50
2021,06,25,08,35,21.50
2021,06,25,08,36,21.50
2021,06,25,08,37,21.50
2021,06,25,08,38,21.50
2021,06,25,08,39,21.60
2021,06,25,08,40,21.60
2021,06,25,08,41,21.60
2021,06,25,08,42,21.60
2021,06,25,08,43,21.70
2021,06,25,08,44,21.70
2021,06,25,08,45,21.70
2021,06,25,08,46,21.80
2021,06,25,08,47,21.80
2021,06,25,08,48,21.80
2021,06,25,08,49,21.80
2021,06,25,08,50,21.80
2021,06,25,08,51,21.80
2021,06,25,08,52,21.80
2021,06,25,08,53,21.90
2021,06,25,08,54,21.80
2021,06,25,08,55,21.80
2021,06,25,08,56,21.80
2021,06,25,08,57,21.80
2021,06,25,08,58,21.80
2021,06,25,08,59,21.80
2021,06,25,09,00,21.90
2021,06,25,09,01,21.90
2021,06,25,09,02,21.90
2021,06,25,09,03,21.90
2021,06,25,09,04,21.90
2021,06,25,09,05,21.90
2021,06,25,09,06,21.90
2021,06,25,09,07,21.90
2021,06,25,09,08,22.00
2021,06,25,09,09,22.00
2021,06,25,09,10,22.00
2021,06,25,09,11,22.00
2021,06,25,09,12,22.00
2021,06,25,09,13,22.00
2021,06,25,09,14,22.10
2021,06,25,09,15,22.10
2021,06,25,09,16,22.10
2021,06,25,09,17,22.10
2021,06,25,09,18,22.10
2021,06,25,09,19,22.00
2021,06,25,09,20,22.00
2021,06,25,09,21,22.10
2021,06,25,09,22,22.10
2021,06,25,09,23,22.00
2021,06,25,09,24,22.10
2021,06,25,09,25,22.10
2021,06,25,09,26,22.10
2021,06,25,09,27,22.00
2021,06,25,09,28,22.00
2021,06,25,09,29,22.00
2021,06,25,09,30,21.90
2021,06,25,09,31,21.90
2021,06,25,09,32,21.90
2021,06,25,09,33,21.80
2021,06,25,09,34,21.80
2021,06,25,09,35,21.70
2021,06,25,09,36,21.60
2021,06,25,09,37,21.50
2021,06,25,09,38,21.50
2021,06,25,09,39,21.40
2021,06,25,09,40,21.40
2021,06,25,09,41,21.40
2021,06,25,09,42,21.40
2021,06,25,09,43,21.40
2021,06,25,09,44,21.40
2021,06,25,09,45,21.50
2021,06,25,09,46,21.50
2021,06,25,09,47,21.50
2021,06,25,09,48,21.50
2021,06,25,09,49,21.50
2021,06,25,09,50,21.50
2021,06,25,09,51,21.50
2021,06,25,09,52,21.50
2021,06,25,09,53,21.50
2021,06,25,09,54,21.50
2021,06,25,09,55,21.60
2021,06,25,09,56,21.60
2021,06,25,09,57,21.60
2021,06,25,09,58,21.60
2021,06,25,09,59,21.60
2021,06,25,10,00,21.60
2021,06,25,10,01,21.70
2021,06,25,10,02,21.70
2021,06,25,10,03,21.80
2021,06,25,10,04,21.80
2021,06,25,10,05,21.90
2021,06,25,10,06,21.90
2021,06,25,10,07,22.00
2021,06,25,10,08,22.00
2021,06,25,10,09,22.10
2021,06,25,10,10,22.20
2021,06,25,10,11,22.30
2021,06,25,10,12,22.30
2021,06,25,10,13,22.30
2021,06,25,10,14,22.40
2021,06,25,10,15,22.40
2021,06,25,10,16,22.50
2021,06,25,10,17,22.60
2021,06,25,10,18,22.60
2021,06,25,10,19,22.70
2021,06,25,10,20,22.70
2021,06,25,10,21,22.80
2021,06,25,10,22,22.80
2021,06,25,10,23,22.90
2021,06,25,10,24,23.00
2021,06,25,10,25,23.10
2021,06,25,10,26,23.10
2021,06,25,10,27,23.20
2021,06,25,10,28,23.30
2021,06,25,10,29,23.30
2021,06,25,10,30,23.40
2021,06,25,10,31,23.40
2021,06,25,10,32,23.50
2021,06,25,10,33,23.60
2021,06,25,10,34,23.70
2021,06,25,10,35,23.70
2021,06,25,10,36,23.80
2021,06,25,10,37,23.80
2021,06,25,10,38,23.90
2021,06,25,10,39,23.90
2021,06,25,10,40,23.90
2021,06,25,10,41,23.90
2021,06,25,10,42,23.90
2021,06,25,10,43,24.00
2021,06,25,10,44,24.00
2021,06,25,10,45,23.90
2021,06,25,10,46,23.90
2021,06,25,10,47,23.80
2021,06,25,10,48,23.80
2021,06,25,10,49,23.80
2021,06,25,10,50,23.80
2021,06,25,10,51,23.70
2021,06,25,10,52,23.70
2021,06,25,10,53,23.70
2021,06,25,10,54,23.70
2021,06,25,10,55,23.60
2021,06,25,10,56,23.60
2021,06,25,10,57,23.70
2021,06,25,10,58,23.70
2021,06,25,10,59,23.80
2021,06,25,11,00,23.90
2021,06,25,11,01,23.90
2021,06,25,11,02,24.00
2021,06,25,11,03,24.00
2021,06,25,11,04,24.10
2021,06,25,11,05,24.00
2021,06,25,11,06,24.10
2021,06,25,11,07,24.20
2021,06,25,11,08,24.20
2021,06,25,11,09,24.20
2021,06,25,11,10,24.20
2021,06,25,11,11,24.20
2021,06,25,11,12,24.30
2021,06,25,11,13,24.40
2021,06,25,11,14,24.40
2021,06,25,11,15,24.40
2021,06,25,11,16,24.40
2021,06,25,11,17,24.40
2021,06,25,11,18,24.30
2021,06,25,11,19,24.30
2021,06,25,11,20,24.40
2021,06,25,11,21,24.40
2021,06,25,11,22,24.50
2021,06,25,11,23,24.50
2021,06,25,11,24,24.60
2021,06,25,11,25,24.60
2021,06,25,11,26,24.60
2021,06,25,11,27,24.70
2021,06,25,11,28,24.70
2021,06,25,11,29,24.70
2021,06,25,11,30,24.70
2021,06,25,11,31,24.70
2021,06,25,11,32,24.70
2021,06,25,11,33,24.70
2021,06,25,11,34,24.70
2021,06,25,11,35,24.70
2021,06,25,11,36,24.80
2021,06,25,11,37,24.90
2021,06,25,11,38,25.00
2021,06,25,11,39,25.00
2021,06,25,11,40,25.10
2021,06,25,11,41,25.20
2021,06,25,11,42,25.30
2021,06,25,11,43,25.40
2021,06,25,11,44,25.40
2021,06,25,11,45,25.40
2021,06,25,11,46,25.40
2021,06,25,11,47,25.40
2021,06,25,11,48,25.40
2021,06,25,11,49,25.40
2021,06,25,11,50,25.30
2021,06,25,11,51,25.40
2021,06,25,11,52,25.50
2021,06,25,11,53,25.60
2021,06,25,11,54,25.70
2021,06,25,11,55,25.80
2021,06,25,11,56,25.70
2021,06,25,11,57,25.60
2021,06,25,11,58,25.50
2021,06,25,11,59,25.50
2021,06,25,12,00,25.40
2021,06,25,12,01,25.50
2021,06,25,12,02,25.50
2021,06,25,12,03,25.40
2021,06,25,12,04,25.40
2021,06,25,12,05,25.40
2021,06,25,12,06,25.40
2021,06,25,12,07,25.50
2021,06,25,12,08,25.50
2021,06,25,12,09,25.50
2021,06,25,12,10,25.60
2021,06,25,12,11,25.60
2021,06,25,12,12,25.60
2021,06,25,12,13,25.70
2021,06,25,12,14,25.70
2021,06,25,12,15,25.60
2021,06,25,12,16,25.60
2021,06,25,12,17,25.70
2021,06,25,12,18,25.70
2021,06,25,12,19,25.70
2021,06,25,12,20,25.80
2021,06,25,12,21,25.90
2021,06,25,12,22,25.90
2021,06,25,12,23,25.90
2021,06,25,12,24,25.90
2021,06,25,12,25,26.00
2021,06,25,12,26,26.10
2021,06,25,12,27,26.10
2021,06,25,12,28,26.10
2021,06,25,12,29,26.10
2021,06,25,12,30,26.20
2021,06,25,12,31,26.10
2021,06,25,12,32,26.20
2021,06,25,12,33,26.20
2021,06,25,12,34,26.20
2021,06,25,12,35,26.20
2021,06,25,12,36,26.20
2021,06,25,12,37,26.20
2021,06,25,12,38,26.20
2021,06,25,12,39,26.20
2021,06,25,12,40,26.30
2021,06,25,12,41,26.30
2021,06,25,12,42,26.30
2021,06,25,12,43,26.40
2021,06,25,12,44,26.40
2021,06,25,12,45,26.50
2021,06,25,12,46,26.60
2021,06,25,12,47,26.60
2021,06,25,12,48,26.60
2021,06,25,12,49,26.70
2021,06,25,12,50,26.80
2021,06,25,12,51,26.80
2021,06,25,12,52,26.80
2021,06,25,12,53,26.80
2021,06,25,12,54,26.80
2021,06,25,12,55,26.90
2021,06,25,12,56,26.90
2021,06,25,12,57,26.90
2021,06,25,12,58,26.90
2021,06,25,12,59,26.80
2021,06,25,13,00,26.80
2021,06,25,13,01,26.80
2021,06,25,13,02,26.80
2021,06,25,13,03,26.90
2021,06,25,13,04,26.80
2021,06,25,13,05,26.80
2021,06,25,13,06,26.80
2021,06,25,13,07,26.80
2021,06,25,13,08,26.80
2021,06,25,13,09,26.80
2021,06,25,13,10,26.80
2021,06,25,13,11,26.80
2021,06,25,13,12,26.80
2021,06,25,13,13,26.90
2021,06,25,13,14,27.00
2021,06,25,13,15,27.00
2021,06,25,13,16,27.10
2021,06,25,13,17,27.10
2021,06,25,13,18,27.00
2021,06,25,13,19,27.00
2021,06,25,13,20,26.90
2021,06,25,13,21,26.90
2021,06,25,13,22,26.90
2021,06,25,13,23,26.90
2021,06,25,13,24,26.90
2021,06,25,13,25,26.90
2021,06,25,13,26,27.00
2021,06,25,13,27,27.10
2021,06,25,13,28,27.20
2021,06,25,13,29,27.40
2021,06,25,13,30,27.40
2021,06,25,13,31,27.50
2021,06,25,13,32,27.50
2021,06,25,13,33,27.50
2021,06,25,13,34,27.50
2021,06,25,13,35,27.50
2021,06,25,13,36,27.40
2021,06,25,13,37,27.40
2021,06,25,13,38,27.50
2021,06,25,13,39,27.50
2021,06,25,13,40,27.50
2021,06,25,13,41,27.60
2021,06,25,13,42,27.70
2021,06,25,13,43,27.70
2021,06,25,13,44,27.70
2021,06,25,13,45,27.80
2021,06,25,13,46,27.80
2021,06,25,13,47,27.80
2021,06,25,13,48,27.80
2021,06,25,13,49,27.80
2021,06,25,13,50,27.90
2021,06,25,13,51,27.90
2021,06,25,13,52,27.90
2021,06,25,13,53,27.90
2021,06,25,13,54,27.90
2021,06,25,13,55,27.80
2021,06,25,13,56,27.80
2021,06,25,13,57,27.90
2021,06,25,13,58,27.90
2021,06,25,13,59,28.00
2021,06,25,14,00,28.00
2021,06,25,14,01,28.10
2021,06,25,14,02,28.10
2021,06,25,14,03,28.10
2021,06,25,14,04,28.20
2021,06,25,14,05,28.20
2021,06,25,14,06,28.20
2021,06,25,14,07,28.30
2021,06,25,14,08,28.30
2021,06,25,14,09,28.40
2021,06,25,14,10,28.30
2021,06,25,14,11,28.30
2021,06,25,14,12,28.30
2021,06,25,14,13,28.40
2021,06,25,14,14,28.40
2021,06,25,14,15,28.50
2021,06,25,14,16,28.50
2021,06,25,14,17,28.50
2021,06,25,14,18,28.40
2021,06,25,14,19,28.30
2021,06,25,14,20,28.30
2021,06,25,14,21,28.20
2021,06,25,14,22,28.10
2021,06,25,14,23,28.00
2021,06,25,14,24,28.00
2021,06,25,14,25,27.90
2021,06,25,14,26,27.80
2021,06,25,14,27,27.70
2021,06,25,14,28,27.70
2021,06,25,14,29,27.70
2021,06,25,14,30,27.70
2021,06,25,14,31,27.80
2021,06,25,14,32,27.80
2021,06,25,14,33,27.90
2021,06,25,14,34,27.90
2021,06,25,14,35,27.90
2021,06,25,14,36,27.90
2021,06,25,14,37,27.90
2021,06,25,14,38,27.90
2021,06,25,14,39,27.90
2021,06,25,14,40,27.90
2021,06,25,14,41,27.90
2021,06,25,14,42,27.90
2021,06,25,14,43,27.90
2021,06,25,14,44,27.90
2021,06,25,14,45,27.90
2021,06,25,14,46,27.90
2021,06,25,14,47,27.90
2021,06,25,14,48,28.10
2021,06,25,14,49,28.20
2021,06,25,14,50,28.40
2021,06,25,14,51,28.50
2021,06,25,14,52,28.60
2021,06,25,14,53,28.80
2021,06,25,14,54,28.80
2021,06,25,14,55,28.80
2021,06,25,14,56,28.90
2021,06,25,14,57,29.00
2021,06,25,14,58,29.10
2021,06,25,14,59,29.20
2021,06,25,15,00,29.30
2021,06,25,15,01,29.30
2021,06,25,15,02,29.30
2021,06,25,15,03,29.40
2021,06,25,15,04,29.40
2021,06,25,15,05,29.30
2021,06,25,15,06,29.40
2021,06,25,15,07,29.40
2021,06,25,15,08,29.50
2021,06,25,15,09,29.50
2021,06,25,15,10,29.50
2021,06,25,15,11,29.50
2021,06,25,15,12,29.50
2021,06,25,15,13,29.50
2021,06,25,15,14,29.40
2021,06,25,15,15,29.40
2021,06,25,15,16,29.40
2021,06,25,15,17,29.40
2021,06,25,15,18,29.50
2021,06,25,15,19,29.50
2021,06,25,15,20,29.50
2021,06,25,15,21,29.60
2021,06,25,15,22,29.70
2021,06,25,15,23,29.80
2021,06,25,15,24,30.00
2021,06,25,15,25,30.10
2021,06,25,15,26,30.20
2021,06,25,15,27,30.30
2021,06,25,15,28,30.40
2021,06,25,15,29,30.50
2021,06,25,15,30,30.50
2021,06,25,15,31,30.50
2021,06,25,15,32,30.60
2021,06,25,15,33,30.60
2021,06,25,15,34,30.70
2021,06,25,15,35,30.70
2021,06,25,15,36,30.70
2021,06,25,15,37,30.70
2021,06,25,15,38,30.70
2021,06,25,15,39,30.80
2021,06,25,15,40,30.70
2021,06,25,15,41,30.70
2021,06,25,15,42,30.70
2021,06,25,15,43,30.60
2021,06,25,15,44,30.70
2021,06,25,15,45,30.70
2021,06,25,15,46,30.70
2021,06,25,15,47,30.70
2021,06,25,15,48,30.70
2021,06,25,15,49,30.60
2021,06,25,15,50,30.60
2021,06,25,15,51,30.50
2021,06,25,15,52,30.40
2021,06,25,15,53,30.50
2021,06,25,15,54,30.50
2021,06,25,15,55,30.60
2021,06,25,15,56,30.60
2021,06,25,15,57,30.60
2021,06,25,15,58,30.60
2021,06,25,15,59,30.60
2021,06,25,16,00,30.60
2021,06,25,16,01,30.70
2021,06,25,16,02,30.80
2021,06,25,16,03,30.80
2021,06,25,16,04,30.80
2021,06,25,16,05,30.80
2021,06,25,16,06,30.70
2021,06,25,16,07,30.70
2021,06,25,16,08,30.70
2021,06,25,16,09,30.70
2021,06,25,16,10,30.60
2021,06,25,16,11,30.60
2021,06,25,16,12,30.70
2021,06,25,16,13,30.80
2021,06,25,16,14,30.80
2021,06,25,16,15,30.80
2021,06,25,16,16,30.70
2021,06,25,16,17,30.70
2021,06,25,16,18,30.60
2021,06,25,16,19,30.60
2021,06,25,16,20,30.60
2021,06,25,16,21,30.60
2021,06,25,16,22,30.60
2021,06,25,16,23,30.60
2021,06,25,16,24,30.70
2021,06,25,16,25,30.70
2021,06,25,16,26,30.80
2021,06,25,16,27,30.80
2021,06,25,16,28,30.90
2021,06,25,16,29,30.90
2021,06,25,16,30,31.00
2021,06,25,16,31,31.00
2021,06,25,16,32,31.10
2021,06,25,16,33,31.10
2021,06,25,16,34,31.10
2021,06,25,16,35,31.10
2021,06,25,16,36,31.20
2021,06,25,16,37,31.20
2021,06,25,16,38,31.20
2021,06,25,16,39,31.30
2021,06,25,16,40,31.30
2021,06,25,16,41,31.40
2021,06,25,16,42,31.40
2021,06,25,16,43,31.40
2021,06,25,16,44,31.50
2021,06,25,16,45,31.50
2021,06,25,16,46,31.40
2021,06,25,16,47,31.40
2021,06,25,16,48,31.50
2021,06,25,16,49,31.50
2021,06,25,16,50,31.50
2021,06,25,16,51,31.50
2021,06,25,16,52,31.40
2021,06,25,16,53,31.30
2021,06,25,16,54,31.30
2021,06,25,16,55,31.30
2021,06,25,16,56,31.30
2021,06,25,16,57,31.20
2021,06,25,16,58,31.20
2021,06,25,16,59,31.20
2021,06,25,17,00,31.20
2021,06,25,17,01,31.20
2021,06,25,17,02,31.20
2021,06,25,17,03,31.10
2021,06,25,17,04,31.10
2021,06,25,17,05,31.10
2021,06,25,17,06,31.10
2021,06,25,17,07,31.10
2021,06,25,17,08,31.10
2021,06,25,17,09,31.10
2021,06,25,17,10,31.10
2021,06,25,17,11,31.20
2021,06,25,17,12,31.20
2021,06,25,17,13,31.20
2021,06,25,17,14,31.20
2021,06,25,17,15,31.20
2021,06,25,17,16,31.20
2021,06,25,17,17,31.20
2021,06,25,17,18,31.20
2021,06,25,17,19,31.20